User: anonymous   Login
Location: Unspecified
(0.0000°N, 0.0000°E)
Time: 23:39:35
(UTC+00:00)
Language:

LATINSAT B - Orbit

View from above orbital plane
View from above orbital plane
View from above satellite
View from above satellite

Ground track
Ground track

The orbit data is extracted from the following two-line orbital elements,

1 27606U 02058B   18140.61904992 -.00000048 +00000-0 +14546-4 0  9997
2 27606 064.5565 238.6749 0068253 344.6044 015.2979 14.72146309827526
Epoch (UTC): 20 May 2018 14:51:25
Eccentricity: 0.0068253
inclination: 64.5565°
perigee height: 606 km
apogee height: 702 km
right ascension of ascending node: 238.6749°
argument of perigee: 344.6044°
revolutions per day: 14.72146309
mean anomaly at epoch: 15.2979°
orbit number at epoch: 82752

The dashed part of the orbit path shows where the satellite is in the earth's shadow,  

DLR